WA2GUG Weather Reports


Display with metric or nautical units.
time (UTC)temp
F
wind
direction
speed
MPH
gust
MPH
rain 1hr
in
rain 24hr
in
rain mn
in
humidity
%
barometer
mb
20260905203707 69 4 0.0 0.0 0.00 0.00 0.00 99 1008.0
20260905203207 69 4 0.0 0.0 0.00 0.00 0.00 99 1008.0
20260905202707 69 311 0.0 0.0 0.00 0.00 0.00 99 1008.0
20260905202207 68 291 0.0 0.0 0.00 0.00 0.00 99 1008.0
20260905201707 68 302 0.0 0.0 0.00 0.00 0.00 99 1008.0
20260905201207 68 315 0.0 0.0 0.00 0.00 0.00 99 1008.0
20260905200707 69 299 0.0 0.0 0.00 0.00 0.00 99 1008.0
20260905200207 72 129 0.0 0.0 0.00 0.00 0.00 99 1008.0
20260905195707 74 132 0.0 0.0 0.00 0.00 0.00 99 1008.0
20260905195207 79 139 0.0 2.0 0.00 0.00 0.00 99 1008.0
20260905194707 83 138 0.0 3.0 0.00 0.00 0.00 99 1008.0
20260905194207 87 95 0.0 3.0 0.00 0.00 0.00 99 1008.0
20260905193707 89 134 0.0 0.0 0.00 0.00 0.00 99 1008.0
20260905193207 89 322 0.0 0.0 0.00 0.00 0.00 99 1008.0
20260905192207 85 95 0.0 0.0 0.00 0.00 0.00 99 1008.0
20260905191707 84 49 0.0 0.0 0.00 0.00 0.00 99 1008.0
20260905191207 83 2 0.0 0.0 0.00 0.00 0.00 99 1008.0
20260905190707 82 352 0.0 0.0 0.00 0.00 0.00 99 1008.0
20260905190206 82 177 0.0 0.0 0.00 0.00 0.00 99 1008.0
20260905185707 82 129 0.0 0.0 0.00 0.00 0.00 99 1008.0
20260905185207 83 139 0.0 0.0 0.00 0.00 0.00 99 1008.0
20260905184707 83 145 0.0 0.0 0.00 0.00 0.00 99 1008.0
20260905184206 83 162 0.0 0.0 0.00 0.00 0.00 99 1008.0
20260905183707 83 171 0.0 0.0 0.00 0.00 0.00 99 1008.0
20260905183207 82 90 0.0 0.0 0.00 0.00 0.00 99 1008.0
20260905182707 80 152 0.0 0.0 0.00 0.00 0.00 99 1008.0
20260905182206 80 135 0.0 0.0 0.00 0.00 0.00 99 1008.0
20260905181707 81 90 0.0 0.0 0.00 0.00 0.00 99 1008.0
20260905181206 81 101 0.0 0.0 0.00 0.00 0.00 99 1008.0
20260905180706 81 141 0.0 0.0 0.00 0.00 0.00 99 1008.0
20260905180206 81 95 0.0 0.0 0.00 0.00 0.00 99 1008.0
20260905175706 81 135 0.0 0.0 0.00 0.00 0.00 99 1008.0
20260905175206 82 97 0.0 0.0 0.00 0.00 0.00 99 1008.0
20260905174706 80 314 0.0 0.0 0.00 0.00 0.00 99 1008.0
20260905174206 78 86 0.0 0.0 0.00 0.00 0.00 99 1008.0
20260905173706 79 111 0.0 0.0 0.00 0.00 0.00 99 1008.0
20260905173206 80 322 0.0 0.0 0.00 0.00 0.00 99 1008.0
20260905172706 83 277 0.0 0.0 0.00 0.00 0.00 99 1008.0
20260905172206 84 74 0.0 0.0 0.00 0.00 0.00 99 1008.0
20260905171707 86 183 0.0 0.0 0.00 0.00 0.00 99 1008.0
20260905171206 85 268 0.0 0.0 0.00 0.00 0.00 99 1008.0
20260905170706 87 140 0.0 0.0 0.00 0.00 0.00 99 1008.0
20260905170206 91 147 0.0 0.0 0.00 0.00 0.00 99 1008.0
20260905165706 92 43 0.0 0.0 0.00 0.00 0.00 99 1008.0
20260905165206 90 185 0.0 0.0 0.00 0.00 0.00 99 1008.0
20260905164706 90 143 0.0 0.0 0.00 0.00 0.00 99 1008.0
20260905164206 92 95 0.0 0.0 0.00 0.00 0.00 99 1008.0
20260905163706 91 135 0.0 0.0 0.00 0.00 0.00 99 1008.0
20260905163206 89 132 0.0 0.0 0.00 0.00 0.00 99 1008.0
20260905162706 87 181 0.0 0.0 0.00 0.00 0.00 99 1008.0
20260905162206 86 173 0.0 0.0 0.00 0.00 0.00 99 1008.0
20260905161707 83 14 0.0 0.0 0.00 0.00 0.00 99 1008.0
20260905161206 82 142 0.0 0.0 0.00 0.00 0.00 99 1008.0
20260905160706 82 99 0.0 0.0 0.00 0.00 0.00 99 1008.0
20260905160206 82 130 0.0 0.0 0.00 0.00 0.00 99 1008.0
20260905155706 83 45 0.0 3.0 0.00 0.00 0.00 99 1008.0
20260905155206 83 0 1.0 3.0 0.00 0.00 0.00 99 1008.0
20260905154706 83 0 0.0 3.0 0.00 0.00 0.00 99 1008.0
20260905154206 84 357 0.0 0.0 0.00 0.00 0.00 99 1008.0
20260905153706 83 351 0.0 0.0 0.00 0.00 0.00 99 1008.0
20260905153206 83 44 0.0 0.0 0.00 0.00 0.00 99 1008.0
20260905152706 84 4 0.0 0.0 0.00 0.00 0.00 99 1008.0
20260905152206 85 4 0.0 0.0 0.00 0.00 0.00 99 1008.0
20260905151706 86 349 0.0 0.0 0.00 0.00 0.00 99 1008.0
20260905151206 86 5 0.0 0.0 0.00 0.00 0.00 99 1008.0
20260905150706 85 137 0.0 0.0 0.00 0.00 0.00 99 1008.0
20260905150206 86 138 0.0 0.0 0.00 0.00 0.00 99 1008.0
20260905145706 86 134 0.0 0.0 0.00 0.00 0.00 99 1008.0
20260905145206 84 95 0.0 2.0 0.00 0.00 0.00 99 1008.0
20260905144706 83 146 0.0 2.0 0.00 0.00 0.00 99 1008.0
20260905144206 83 166 0.0 0.0 0.00 0.00 0.00 99 1008.0
20260905143706 83 8 0.0 0.0 0.00 0.00 0.00 99 1008.0
20260905143206 83 139 0.0 0.0 0.00 0.00 0.00 99 1008.0
20260905142706 81 353 0.0 0.0 0.00 0.00 0.00 99 1008.0
20260905142206 79 190 0.0 0.0 0.00 0.00 0.00 99 1008.0
20260905141706 80 140 0.0 0.0 0.00 0.00 0.00 99 1008.0
20260905141206 83 49 0.0 0.0 0.00 0.00 0.00 99 1008.0
20260905140706 85 93 0.0 0.0 0.00 0.00 0.00 99 1008.0
20260905140206 84 45 0.0 0.0 0.00 0.00 0.00 99 1008.0
20260905135706 83 88 0.0 0.0 0.00 0.00 0.00 99 1008.0
20260905135206 81 45 0.0 0.0 0.00 0.00 0.00 99 1008.0
20260905134706 78 307 0.0 0.0 0.00 0.00 0.00 99 1008.0
20260905134206 78 179 0.0 0.0 0.00 0.00 0.00 99 1008.0
20260905133706 79 156 0.0 0.0 0.00 0.00 0.00 99 1008.0
20260905133206 80 184 0.0 0.0 0.00 0.00 0.00 99 1008.0
20260905132706 81 141 0.0 0.0 0.00 0.00 0.00 99 1008.0
20260905132206 79 81 0.0 0.0 0.00 0.00 0.00 99 1008.0
20260905131706 77 138 0.0 0.0 0.00 0.00 0.00 99 1008.0
20260905131206 76 282 0.0 0.0 0.00 0.00 0.00 99 1008.0
20260905130706 74 92 0.0 0.0 0.00 0.00 0.00 99 1008.0
20260905130206 72 206 0.0 0.0 0.00 0.00 0.00 99 1008.0
20260905125706 68 9 0.0 0.0 0.00 0.00 0.00 99 1008.0
20260905125206 66 163 0.0 0.0 0.00 0.00 0.00 99 1008.0
20260905124706 65 53 0.0 0.0 0.00 0.00 0.00 99 1008.0
20260905124206 64 12 0.0 0.0 0.00 0.00 0.00 99 1008.0
20260905123706 64 189 0.0 0.0 0.00 0.00 0.00 99 1008.0
20260905123206 64 314 0.0 0.0 0.00 0.00 0.00 99 1008.0
20260905122706 64 244 0.0 0.0 0.00 0.00 0.00 99 1008.0
20260905122206 63 133 0.0 0.0 0.00 0.00 0.00 99 1008.0
20260905121706 63 127 0.0 0.0 0.00 0.00 0.00 99 1008.0
20260905121206 62 184 0.0 0.0 0.00 0.00 0.00 99 1008.0
20260905120706 62 140 0.0 0.0 0.00 0.00 0.00 99 1008.0
20260905120206 61 271 0.0 0.0 0.00 0.00 0.00 99 1008.0
20260905115706 61 178 0.0 0.0 0.00 0.00 0.00 99 1008.0
20260905115206 61 206 0.0 0.0 0.00 0.00 0.00 99 1008.0
20260905114706 60 110 0.0 0.0 0.00 0.00 0.00 99 1008.0
20260905114206 60 137 0.0 0.0 0.00 0.00 0.00 99 1008.0
20260905113706 60 136 0.0 0.0 0.00 0.00 0.00 99 1008.0
20260905113206 60 149 0.0 0.0 0.00 0.00 0.00 99 1008.0
20260905112706 59 175 0.0 0.0 0.00 0.00 0.00 99 1008.0
20260905112206 59 151 0.0 0.0 0.00 0.00 0.00 99 1008.0
20260905111706 59 124 0.0 0.0 0.00 0.00 0.00 99 1008.0
20260905111206 59 112 0.0 0.0 0.00 0.00 0.00 99 1008.0
20260905110706 59 102 0.0 0.0 0.00 0.00 0.00 99 1008.0
20260905110206 59 91 0.0 0.0 0.00 0.00 0.00 99 1008.0
20260905105706 60 94 0.0 0.0 0.00 0.00 0.00 99 1008.0
20260905105206 60 30 0.0 0.0 0.00 0.00 0.00 99 1008.0
20260905104706 60 234 0.0 0.0 0.00 0.00 0.00 99 1007.2
20260905104206 60 111 0.0 0.0 0.00 0.00 0.00 99 1008.0
20260905103706 60 144 0.0 0.0 0.00 0.00 0.00 99 1007.2
20260905103206 60 135 0.0 0.0 0.00 0.00 0.00 99 1008.0
20260905102706 60 129 0.0 0.0 0.00 0.00 0.00 99 1007.2
20260905102206 60 166 0.0 0.0 0.00 0.00 0.00 99 1007.1
20260905101706 60 138 0.0 0.0 0.00 0.00 0.00 99 1007.0
20260905101206 60 141 0.0 0.0 0.00 0.00 0.00 99 1007.0
20260905100706 61 197 0.0 0.0 0.00 0.00 0.00 99 1007.0
20260905100206 61 152 0.0 0.0 0.00 0.00 0.00 99 1007.0
20260905095706 60 106 0.0 0.0 0.00 0.00 0.00 99 1007.0
20260905095206 60 125 0.0 0.0 0.00 0.00 0.00 99 1007.0
20260905094706 60 121 0.0 0.0 0.00 0.00 0.00 99 1007.0
20260905094206 60 99 0.0 0.0 0.00 0.00 0.00 99 1007.0
20260905093706 60 137 0.0 0.0 0.00 0.00 0.00 99 1007.0
20260905093206 60 135 0.0 0.0 0.00 0.00 0.00 99 1007.0
20260905092706 60 127 0.0 0.0 0.00 0.00 0.00 99 1007.0
20260905092206 59 200 0.0 0.0 0.00 0.00 0.00 99 1007.0
20260905091706 59 156 0.0 0.0 0.00 0.00 0.00 99 1007.0
20260905091206 59 142 0.0 0.0 0.00 0.00 0.00 99 1007.0
20260905090706 59 121 0.0 0.0 0.00 0.00 0.00 99 1007.0
20260905090206 59 123 0.0 0.0 0.00 0.00 0.00 99 1007.0
20260905085706 59 128 0.0 0.0 0.00 0.00 0.00 99 1007.0
20260905085206 59 114 0.0 0.0 0.00 0.00 0.00 99 1007.0
20260905084706 59 125 0.0 0.0 0.00 0.00 0.00 99 1007.0
20260905084206 59 157 0.0 0.0 0.00 0.00 0.00 99 1007.0
20260905083706 59 179 0.0 0.0 0.00 0.00 0.00 99 1007.0
20260905083206 59 174 0.0 0.0 0.00 0.00 0.00 99 1007.0
20260905082706 59 81 0.0 0.0 0.00 0.00 0.00 99 1007.0
20260905082206 59 130 0.0 0.0 0.00 0.00 0.00 99 1007.0
20260905081706 59 135 0.0 0.0 0.00 0.00 0.00 99 1007.0
20260905081206 59 127 0.0 0.0 0.00 0.00 0.00 99 1007.1
20260905080706 59 112 0.0 0.0 0.00 0.00 0.00 99 1007.2
20260905080206 59 89 0.0 0.0 0.00 0.00 0.00 99 1007.2
20260905075706 59 135 0.0 0.0 0.00 0.00 0.00 99 1007.2
20260905075206 59 120 0.0 0.0 0.00 0.00 0.00 99 1008.0
20260905074706 59 85 0.0 0.0 0.00 0.00 0.00 99 1007.2
20260905074206 59 127 0.0 0.0 0.00 0.00 0.00 99 1008.0
20260905073706 59 126 0.0 0.0 0.00 0.00 0.00 99 1007.2
20260905073206 59 141 0.0 0.0 0.00 0.00 0.00 99 1008.0
20260905072706 59 142 0.0 0.0 0.00 0.00 0.00 99 1007.2
20260905072206 59 182 0.0 0.0 0.00 0.00 0.00 99 1008.0
20260905071706 59 222 0.0 0.0 0.00 0.00 0.00 99 1008.0
20260905071206 59 163 0.0 0.0 0.00 0.00 0.00 99 1008.0
20260905070706 59 137 0.0 0.0 0.00 0.00 0.00 99 1008.0
20260905070206 59 139 0.0 0.0 0.00 0.00 0.00 99 1008.0
20260905065706 59 127 0.0 0.0 0.00 0.00 0.00 99 1007.2
20260905065206 59 142 0.0 0.0 0.00 0.00 0.00 99 1008.0
20260905064706 58 139 0.0 0.0 0.00 0.00 0.00 99 1008.0
20260905064206 58 141 0.0 0.0 0.00 0.00 0.00 99 1008.0
20260905063706 58 94 0.0 0.0 0.00 0.00 0.00 99 1008.0
20260905063206 58 118 0.0 0.0 0.00 0.00 0.00 99 1008.0
20260905062706 58 103 0.0 0.0 0.00 0.00 0.00 99 1008.0
20260905062206 58 81 0.0 0.0 0.00 0.00 0.00 99 1008.0
20260905061706 58 108 0.0 0.0 0.00 0.00 0.00 99 1008.0
20260905061206 58 97 0.0 0.0 0.00 0.00 0.00 99 1008.0
20260905060706 58 69 0.0 0.0 0.00 0.00 0.00 99 1008.0
20260905060206 58 190 0.0 0.0 0.00 0.00 0.00 99 1008.0
20260905055706 58 125 0.0 0.0 0.00 0.00 0.00 99 1008.0
20260905055206 58 189 0.0 0.0 0.00 0.00 0.00 99 1008.0
20260905054706 58 99 0.0 0.0 0.00 0.00 0.00 99 1008.0
20260905054206 57 136 0.0 0.0 0.00 0.00 0.00 99 1008.0
20260905053706 57 112 0.0 0.0 0.00 0.00 0.00 99 1008.0
20260905053206 57 141 0.0 0.0 0.00 0.00 0.00 99 1008.0
20260905052706 58 135 0.0 0.0 0.00 0.00 0.00 99 1008.0
20260905052205 58 118 0.0 0.0 0.00 0.00 0.00 99 1008.0
20260905051706 58 118 0.0 0.0 0.00 0.00 0.00 99 1008.0
20260905051206 58 1 0.0 0.0 0.00 0.00 0.00 99 1008.0
20260905050705 58 33 0.0 0.0 0.00 0.00 0.00 99 1008.0
20260905050205 59 18 0.0 0.0 0.00 0.00 0.00 99 1008.0
20260905045705 59 29 0.0 0.0 0.00 0.00 0.00 99 1008.0
20260905045205 59 111 0.0 0.0 0.00 0.00 0.00 99 1008.0
20260905044705 59 120 0.0 0.0 0.00 0.00 0.00 99 1008.0
20260905044205 59 135 0.0 0.0 0.00 0.00 0.00 99 1008.0
20260905043705 59 109 0.0 0.0 0.00 0.00 0.00 99 1008.0
20260905043205 59 136 0.0 0.0 0.00 0.00 0.00 99 1008.0
20260905042705 59 141 0.0 0.0 0.00 0.00 0.00 99 1008.0
20260905042205 59 131 0.0 0.0 0.00 0.00 0.00 99 1008.0
20260905041706 59 124 0.0 0.0 0.00 0.00 0.00 99 1008.0
20260905041205 59 114 0.0 0.0 0.00 0.00 0.00 99 1008.0
20260905040705 59 146 0.0 0.0 0.00 0.00 0.00 99 1008.0
20260905040205 59 165 0.0 0.0 0.00 0.00 0.00 99 1008.0
20260905035705 60 122 0.0 0.0 0.00 0.00 0.00 99 1008.0
20260905035205 60 134 0.0 0.0 0.00 0.00 0.00 99 1008.0
20260905034705 60 133 0.0 0.0 0.00 0.00 0.00 99 1008.0
20260905034205 60 86 0.0 0.0 0.00 0.00 0.00 99 1008.0
20260905033705 60 156 0.0 0.0 0.00 0.00 0.00 99 1008.0
20260905033205 60 165 0.0 0.0 0.00 0.00 0.00 99 1008.0
20260905032705 60 198 0.0 0.0 0.00 0.00 0.00 99 1008.0
20260905032205 61 138 0.0 0.0 0.00 0.00 0.00 99 1008.0
20260905031705 61 138 0.0 0.0 0.00 0.00 0.00 99 1008.0
20260905031205 61 127 0.0 0.0 0.00 0.00 0.00 99 1008.0
20260905030705 61 102 0.0 0.0 0.00 0.00 0.00 99 1008.0
20260905030205 60 116 0.0 0.0 0.00 0.00 0.00 99 1008.0
20260905025705 60 127 0.0 0.0 0.00 0.00 0.00 99 1008.0
20260905025205 60 135 0.0 0.0 0.00 0.00 0.00 99 1008.0
20260905024705 60 130 0.0 0.0 0.00 0.00 0.00 99 1008.0
20260905024205 61 103 0.0 0.0 0.00 0.00 0.00 99 1008.0
20260905023705 61 112 0.0 0.0 0.00 0.00 0.00 99 1008.0
20260905023205 61 123 0.0 0.0 0.00 0.00 0.00 99 1008.0
20260905022705 61 133 0.0 0.0 0.00 0.00 0.00 99 1008.0
20260905022205 61 109 0.0 0.0 0.00 0.00 0.00 99 1008.0
20260905021705 61 123 0.0 0.0 0.00 0.00 0.00 99 1008.0
20260905021205 61 125 0.0 0.0 0.00 0.00 0.00 99 1008.0
20260905020705 61 112 0.0 0.0 0.00 0.00 0.00 99 1008.0
20260905020205 61 105 0.0 0.0 0.00 0.00 0.00 99 1008.0
20260905015705 61 118 0.0 0.0 0.00 0.00 0.00 99 1008.0
20260905015205 61 116 0.0 0.0 0.00 0.00 0.00 99 1008.0
20260905014705 61 127 0.0 0.0 0.00 0.00 0.00 99 1008.0
20260905014205 61 112 0.0 0.0 0.00 0.00 0.00 99 1008.0
20260905013705 61 108 0.0 0.0 0.00 0.00 0.00 99 1008.0
20260905013205 62 104 0.0 0.0 0.00 0.00 0.00 99 1008.0
20260905012705 62 82 0.0 0.0 0.00 0.00 0.00 99 1008.0
20260905012205 62 120 0.0 0.0 0.00 0.00 0.00 99 1008.0
20260905011705 63 117 0.0 0.0 0.00 0.00 0.00 99 1008.0
20260905011205 63 102 0.0 0.0 0.00 0.00 0.00 99 1008.0
20260905010705 63 165 0.0 0.0 0.00 0.00 0.00 99 1008.0
20260905010205 63 180 0.0 0.0 0.00 0.00 0.00 99 1008.0
20260905005705 63 180 0.0 0.0 0.00 0.00 0.00 99 1008.0
20260905005205 63 180 0.0 0.0 0.00 0.00 0.00 99 1008.0
20260905004705 64 130 0.0 0.0 0.00 0.00 0.00 99 1008.0
20260905004205 64 119 0.0 0.0 0.00 0.00 0.00 99 1008.0
20260905003705 64 107 0.0 0.0 0.00 0.00 0.00 99 1008.0
20260905003205 64 116 0.0 0.0 0.00 0.00 0.00 99 1008.0
20260905002705 64 128 0.0 0.0 0.00 0.00 0.00 99 1008.0
20260905002205 65 136 0.0 0.0 0.00 0.00 0.00 99 1008.0
20260905001706 65 143 0.0 0.0 0.00 0.00 0.00 99 1008.0
20260905001205 65 136 0.0 0.0 0.00 0.00 0.00 99 1008.0
20260905000705 65 131 0.0 0.0 0.00 0.00 0.00 99 1008.0
20260905000205 66 164 0.0 0.0 0.00 0.00 0.00 99 1008.0
20260904235705 66 169 0.0 0.0 0.00 0.00 0.00 99 1008.0
20260904235205 66 158 0.0 0.0 0.00 0.00 0.00 99 1007.2
20260904234705 66 144 0.0 0.0 0.00 0.00 0.00 99 1008.0
20260904234205 67 143 0.0 0.0 0.00 0.00 0.00 99 1007.2
20260904233705 67 136 0.0 0.0 0.00 0.00 0.00 99 1008.0
20260904233205 68 128 0.0 0.0 0.00 0.00 0.00 99 1008.0
20260904232705 68 128 0.0 0.0 0.00 0.00 0.00 99 1008.0
20260904232205 69 143 0.0 0.0 0.00 0.00 0.00 99 1008.0
20260904231705 70 126 0.0 0.0 0.00 0.00 0.00 99 1008.0
20260904231205 71 9 0.0 0.0 0.00 0.00 0.00 99 1008.0
20260904230705 71 356 0.0 0.0 0.00 0.00 0.00 99 1008.0
20260904230205 72 46 0.0 0.0 0.00 0.00 0.00 99 1007.2
20260904225705 73 130 0.0 0.0 0.00 0.00 0.00 99 1008.0
20260904225205 74 26 0.0 0.0 0.00 0.00 0.00 99 1007.2
20260904224705 75 10 0.0 0.0 0.00 0.00 0.00 99 1008.0
20260904224205 77 55 0.0 0.0 0.00 0.00 0.00 99 1007.2
20260904223705 79 91 0.0 0.0 0.00 0.00 0.00 99 1007.2
20260904223205 83 53 0.0 0.0 0.00 0.00 0.00 99 1008.0
20260904222705 84 357 0.0 0.0 0.00 0.00 0.00 99 1008.0
20260904221706 89 81 0.0 0.0 0.00 0.00 0.00 99 1007.2
20260904221205 90 311 0.0 0.0 0.00 0.00 0.00 99 1007.2
20260904220705 90 5 0.0 0.0 0.00 0.00 0.00 99 1008.0
20260904220205 90 84 0.0 0.0 0.00 0.00 0.00 99 1007.2
20260904215705 90 358 0.0 0.0 0.00 0.00 0.00 99 1008.0
20260904215205 91 0 0.0 0.0 0.00 0.00 0.00 99 1007.2
20260904214705 90 270 0.0 4.0 0.00 0.00 0.00 99 1008.0
20260904214205 90 353 0.0 4.0 0.00 0.00 0.00 99 1007.2
20260904213705 91 349 0.0 3.0 0.00 0.00 0.00 99 1007.1
20260904213205 92 223 0.0 3.0 0.00 0.00 0.00 99 1007.2
20260904212705 94 271 0.0 2.0 0.00 0.00 0.00 99 1008.0
20260904212205 96 78 0.0 2.0 0.00 0.00 0.00 99 1007.2
20260904211705 97 44 0.0 0.0 0.00 0.00 0.00 99 1007.2
20260904211205 97 0 0.0 0.0 0.00 0.00 0.00 99 1007.2
20260904210705 97 9 0.0 0.0 0.00 0.00 0.00 99 1007.2
20260904210205 97 43 0.0 0.0 0.00 0.00 0.00 99 1008.0
20260904205705 97 56 0.0 0.0 0.00 0.00 0.00 99 1008.0
20260904205205 97 38 0.0 0.0 0.00 0.00 0.00 99 1008.0
20260904204705 97 55 0.0 0.0 0.00 0.00 0.00 99 1008.0
20260904204205 96 76 0.0 0.0 0.00 0.00 0.00 99 1008.0